,,,PA_Meas_PMT16A,,PR_Meas_QMR101_102,,RH_Meas_QMH101,,SR_Meas_QMS101,,TA_Meas_QMH101,,GenWind,,GenWind,
date,time,status,PA,status,PR,status,RH,status,SR,status,TA,status,DirAvg,status,SpdAvg,
2009-08-18, 00:00:04,VALID,1001.89,VALID,0,VALID,86.1766,VALID,0,VALID,23.1939,VALID,121,VALID,0.421094,
2009-08-18, 00:01:04,VALID,1001.89,VALID,0,VALID,86.0087,VALID,0,VALID,23.2737,VALID,141,VALID,0.667188,
2009-08-18, 00:02:04,VALID,1001.84,VALID,0,VALID,85.6577,VALID,0,VALID,23.2702,VALID,123,VALID,1.5332,
2009-08-18, 00:03:04,VALID,1001.85,VALID,0,VALID,84.9482,VALID,0,VALID,23.3695,VALID,110,VALID,1.45391,
2009-08-18, 00:04:04,VALID,1001.86,VALID,0,VALID,84.8032,VALID,0,VALID,23.4671,VALID,146,VALID,0.807031,
2009-08-18, 00:05:04,VALID,1001.87,VALID,0,VALID,84.4065,VALID,0,VALID,23.5061,VALID,130,VALID,1.14023,
2009-08-18, 00:06:04,VALID,1001.88,VALID,0,VALID,83.9487,VALID,0,VALID,23.5646,VALID,140,VALID,1.46563,
2009-08-18, 00:07:04,VALID,1001.87,VALID,0,VALID,83.9487,VALID,0,VALID,23.6019,VALID,131,VALID,1.43867,
2009-08-18, 00:08:04,VALID,1001.85,VALID,0,VALID,83.7809,VALID,0,VALID,23.6427,VALID,126,VALID,1.30117,
2009-08-18, 00:09:04,VALID,1001.84,VALID,0,VALID,83.7046,VALID,0,VALID,23.6817,VALID,124,VALID,1.22344,
2009-08-18, 00:10:04,VALID,1001.83,VALID,0,VALID,83.5291,VALID,0,VALID,23.7012,VALID,126,VALID,1.24531,
2009-08-18, 00:11:04,VALID,1001.84,VALID,0,VALID,83.6359,VALID,0,VALID,23.7207,VALID,115,VALID,0.730859,
2009-08-18, 00:12:04,VALID,1001.86,VALID,0,VALID,83.6969,VALID,0,VALID,23.6994,VALID,136,VALID,1.20234,
2009-08-18, 00:13:04,VALID,1001.85,VALID,0,VALID,83.6512,VALID,0,VALID,23.7012,VALID,128,VALID,1.27539,
2009-08-18, 00:14:04,VALID,1001.83,VALID,0,VALID,83.7198,VALID,0,VALID,23.6799,VALID,129,VALID,1.14648,
2009-08-18, 00:15:04,VALID,1001.83,VALID,0,VALID,83.5901,VALID,0,VALID,23.6817,VALID,129,VALID,1.14883,
2009-08-18, 00:16:04,VALID,1001.78,VALID,0,VALID,83.3307,VALID,0.112286,VALID,23.7012,VALID,127,VALID,1.38906,
2009-08-18, 00:17:04,VALID,1001.77,VALID,0,VALID,83.3765,VALID,0.112286,VALID,23.6994,VALID,113,VALID,0.875391,
2009-08-18, 00:18:04,VALID,1001.76,VALID,0,VALID,83.2392,VALID,0,VALID,23.7402,VALID,125,VALID,0.872656,
2009-08-18, 00:19:04,VALID,1001.73,VALID,0,VALID,83.1857,VALID,0,VALID,23.6994,VALID,118,VALID,0.842188,
2009-08-18, 00:20:04,VALID,1001.74,VALID,0,VALID,82.583,VALID,0,VALID,23.7402,VALID,131,VALID,1.44922,
2009-08-18, 00:21:04,VALID,1001.71,VALID,0,VALID,81.9116,VALID,0,VALID,23.7988,VALID,122,VALID,1.18711,
2009-08-18, 00:22:04,VALID,1001.69,VALID,0,VALID,81.7972,VALID,0,VALID,23.9159,VALID,126,VALID,0.890234,
2009-08-18, 00:23:04,VALID,1001.69,VALID,0,VALID,81.7285,VALID,0,VALID,23.9549,VALID,127,VALID,0.954687,
2009-08-18, 00:24:04,VALID,1001.66,VALID,0,VALID,81.7209,VALID,0,VALID,23.9549,VALID,114,VALID,1.05898,
2009-08-18, 00:25:04,VALID,1001.62,VALID,0,VALID,81.4691,VALID,0,VALID,23.9549,VALID,86,VALID,1.5207,
2009-08-18, 00:26:04,VALID,1001.62,VALID,0,VALID,81.5378,VALID,0,VALID,23.9354,VALID,119,VALID,1.07031,
2009-08-18, 00:27:04,VALID,1001.63,VALID,0,VALID,81.7209,VALID,0,VALID,23.9159,VALID,114,VALID,0.689453,
2009-08-18, 00:28:04,VALID,1001.62,VALID,0,VALID,82.0489,VALID,0,VALID,23.8768,VALID,101,VALID,0.929297,
2009-08-18, 00:29:04,VALID,1001.58,VALID,0,VALID,82.7432,VALID,0,VALID,23.8573,VALID,92,VALID,1.11406,
2009-08-18, 00:30:04,VALID,1001.59,VALID,0,VALID,82.6669,VALID,0,VALID,23.7988,VALID,108,VALID,0.904688,
2009-08-18, 00:31:04,VALID,1001.58,VALID,0,VALID,82.85,VALID,0,VALID,23.7793,VALID,111,VALID,0.751562,
2009-08-18, 00:32:04,VALID,1001.58,VALID,0,VALID,83.1476,VALID,0,VALID,23.7402,VALID,105,VALID,0.879687,
2009-08-18, 00:33:04,VALID,1001.59,VALID,0,VALID,83.407,VALID,0,VALID,23.7402,VALID,104,VALID,0.873438,
2009-08-18, 00:34:04,VALID,1001.56,VALID,0,VALID,83.2392,VALID,0,VALID,23.7207,VALID,104,VALID,0.904297,
2009-08-18, 00:35:04,VALID,1001.57,VALID,0,VALID,83.1781,VALID,0,VALID,23.7402,VALID,115,VALID,0.840625,
2009-08-18, 00:36:04,VALID,1001.6,VALID,0,VALID,83.5749,VALID,0,VALID,23.7597,VALID,113,VALID,0.839844,
2009-08-18, 00:37:04,VALID,1001.59,VALID,0,VALID,83.9029,VALID,0,VALID,23.7402,VALID,106,VALID,1.04492,
2009-08-18, 00:38:04,VALID,1001.58,VALID,0,VALID,84.1089,VALID,0,VALID,23.7012,VALID,107,VALID,1.05977,
2009-08-18, 00:39:04,VALID,1001.58,VALID,0,VALID,84.2615,VALID,0,VALID,23.6817,VALID,106,VALID,1.09297,
2009-08-18, 00:40:04,VALID,1001.62,VALID,0,VALID,84.437,VALID,0,VALID,23.6427,VALID,114,VALID,1.01992,
2009-08-18, 00:41:04,VALID,1001.61,VALID,0,VALID,84.2157,VALID,0,VALID,23.6427,VALID,125,VALID,0.878125,
2009-08-18, 00:42:04,VALID,1001.59,VALID,0,VALID,83.9716,VALID,0,VALID,23.6622,VALID,123,VALID,1.13594,
2009-08-18, 00:43:04,VALID,1001.6,VALID,0,VALID,83.6359,VALID,0,VALID,23.6817,VALID,120,VALID,0.955469,
2009-08-18, 00:44:04,VALID,1001.63,VALID,0,VALID,83.2239,VALID,0,VALID,23.7012,VALID,114,VALID,0.908984,
2009-08-18, 00:45:04,VALID,1001.59,VALID,0,VALID,83.5062,VALID,0,VALID,23.7012,VALID,105,VALID,0.553516,
2009-08-18, 00:46:04,VALID,1001.58,VALID,0,VALID,83.8343,VALID,0,VALID,23.7402,VALID,104,VALID,0.680469,
2009-08-18, 00:47:04,VALID,1001.57,VALID,0,VALID,83.9106,VALID,0,VALID,23.7402,VALID,88,VALID,0.992969,
2009-08-18, 00:48:04,VALID,1001.53,VALID,0,VALID,84.376,VALID,0,VALID,23.7207,VALID,86,VALID,0.874219,
2009-08-18, 00:49:04,VALID,1001.57,VALID,0,VALID,84.4599,VALID,0,VALID,23.7012,VALID,84,VALID,0.291016,
2009-08-18, 00:50:04,VALID,1001.52,VALID,0,VALID,84.6812,VALID,0,VALID,23.6622,VALID,84,VALID,0.305859,
2009-08-18, 00:51:04,VALID,1001.5,VALID,0,VALID,84.7269,VALID,0,VALID,23.6427,VALID,82,VALID,0.412109,
2009-08-18, 00:52:04,VALID,1001.51,VALID,0,VALID,84.91,VALID,0,VALID,23.5841,VALID,81,VALID,0.442578,
2009-08-18, 00:53:04,VALID,1001.49,VALID,0,VALID,85.3678,VALID,0,VALID,23.5061,VALID,81,VALID,0.375781,
2009-08-18, 00:54:04,VALID,1001.47,VALID,0,VALID,85.7493,VALID,0,VALID,23.4475,VALID,81,VALID,0.562891,
2009-08-18, 00:55:04,VALID,1001.43,VALID,0,VALID,85.5815,VALID,0,VALID,23.4475,VALID,81,VALID,0.575391,
2009-08-18, 00:56:04,VALID,1001.5,VALID,0,VALID,85.7722,VALID,0,VALID,23.428,VALID,81,VALID,0.151953,
2009-08-18, 00:57:04,VALID,1001.45,VALID,0,VALID,86.0545,VALID,0,VALID,23.4085,VALID,81,VALID,0.00117188,
2009-08-18, 00:58:04,VALID,1001.47,VALID,0,VALID,86.1842,VALID,0,VALID,23.35,VALID,78,VALID,0.316016,
2009-08-18, 00:59:04,VALID,1001.46,VALID,0,VALID,86.2681,VALID,0,VALID,23.2915,VALID,74,VALID,0.461328,
2009-08-18, 01:00:04,VALID,1001.47,VALID,0,VALID,86.4512,VALID,0,VALID,23.2329,VALID,52,VALID,0.533203,
2009-08-18, 01:01:04,VALID,1001.43,VALID,0,VALID,86.7488,VALID,0,VALID,23.1744,VALID,45,VALID,0.485938,
2009-08-18, 01:02:04,VALID,1001.44,VALID,0,VALID,87.0769,VALID,0,VALID,23.1549,VALID,45,VALID,0.5625,
2009-08-18, 01:03:04,VALID,1001.45,VALID,0,VALID,87.1074,VALID,0,VALID,23.1549,VALID,45,VALID,0.299219,
2009-08-18, 01:04:04,VALID,1001.48,VALID,0,VALID,87.2371,VALID,0,VALID,23.1566,VALID,45,VALID,0.0492188,
2009-08-18, 01:05:04,VALID,1001.45,VALID,0,VALID,87.5804,VALID,0,VALID,23.1354,VALID,50,VALID,0.448828,
2009-08-18, 01:06:04,VALID,1001.45,VALID,0,VALID,88.3586,VALID,0,VALID,23.1549,VALID,68,VALID,1.12539,
2009-08-18, 01:07:04,VALID,1001.43,VALID,0,VALID,88.0458,VALID,0,VALID,23.1939,VALID,54,VALID,1.25273,
2009-08-18, 01:08:04,VALID,1001.4,VALID,0,VALID,87.5957,VALID,0,VALID,23.2134,VALID,49,VALID,0.919922,
2009-08-18, 01:09:04,VALID,1001.44,VALID,0,VALID,87.3286,VALID,0,VALID,23.2134,VALID,25,VALID,0.751953,
2009-08-18, 01:10:04,VALID,1001.43,VALID,0,VALID,87.2447,VALID,0,VALID,23.1531,VALID,4,VALID,0.998438,
2009-08-18, 01:11:04,VALID,1001.4,VALID,0,VALID,87.2294,VALID,0,VALID,23.1354,VALID,6,VALID,1.11563,
2009-08-18, 01:12:04,VALID,1001.42,VALID,0,VALID,87.4202,VALID,0,VALID,23.1159,VALID,9,VALID,0.925781,
2009-08-18, 01:13:04,VALID,1001.41,VALID,0,VALID,87.5346,VALID,0,VALID,23.1159,VALID,6,VALID,0.983203,
2009-08-18, 01:14:04,VALID,1001.38,VALID,0,VALID,87.6262,VALID,0,VALID,23.0769,VALID,5,VALID,0.621094,
2009-08-18, 01:15:04,VALID,1001.35,VALID,0,VALID,87.7101,VALID,0,VALID,23.0378,VALID,360,VALID,0.996094,
2009-08-18, 01:16:04,VALID,1001.34,VALID,0,VALID,87.5651,VALID,0,VALID,22.9988,VALID,360,VALID,0.936328,
2009-08-18, 01:17:04,VALID,1001.28,VALID,0,VALID,87.527,VALID,0,VALID,22.9988,VALID,360,VALID,0.821484,
2009-08-18, 01:18:04,VALID,1001.3,VALID,0,VALID,87.4583,VALID,0,VALID,23.0183,VALID,360,VALID,0.457422,
2009-08-18, 01:19:04,VALID,1001.31,VALID,0,VALID,87.2523,VALID,0,VALID,23.0183,VALID,360,VALID,0.665625,
2009-08-18, 01:20:04,VALID,1001.27,VALID,0,VALID,87.0921,VALID,0,VALID,23.0183,VALID,1,VALID,1.00781,
2009-08-18, 01:21:04,VALID,1001.25,VALID,0,VALID,86.9777,VALID,0,VALID,23.0591,VALID,11,VALID,0.925781,
2009-08-18, 01:22:04,VALID,1001.21,VALID,0,VALID,86.9319,VALID,0,VALID,23.0786,VALID,15,VALID,0.791797,
2009-08-18, 01:23:04,VALID,1001.21,VALID,0,VALID,86.9014,VALID,0,VALID,23.0573,VALID,15,VALID,0.705859,
2009-08-18, 01:24:04,VALID,1001.24,VALID,0,VALID,86.8937,VALID,0,VALID,23.0573,VALID,356,VALID,0.755078,
2009-08-18, 01:25:04,VALID,1001.2,VALID,0,VALID,86.7259,VALID,0,VALID,23.0573,VALID,355,VALID,0.477344,
2009-08-18, 01:26:04,VALID,1001.22,VALID,0,VALID,86.6649,VALID,0,VALID,23.0769,VALID,356,VALID,0.427734,
2009-08-18, 01:27:04,VALID,1001.18,VALID,0,VALID,86.5504,VALID,0,VALID,23.0769,VALID,356,VALID,0.379687,
2009-08-18, 01:28:04,VALID,1001.18,VALID,0,VALID,86.5046,VALID,0,VALID,23.0964,VALID,356,VALID,0.416797,
2009-08-18, 01:29:04,VALID,1001.14,VALID,0,VALID,86.2986,VALID,0,VALID,23.1159,VALID,356,VALID,0.503906,
2009-08-18, 01:30:04,VALID,1001.15,VALID,0,VALID,86.146,VALID,0,VALID,23.1141,VALID,356,VALID,0.399609,
2009-08-18, 01:31:04,VALID,1001.09,VALID,0,VALID,86.1766,VALID,0,VALID,23.1159,VALID,28,VALID,0.796484,
2009-08-18, 01:32:04,VALID,1001.06,VALID,0,VALID,86.558,VALID,0,VALID,23.1159,VALID,40,VALID,1.2957,
2009-08-18, 01:33:04,VALID,1001.06,VALID,0,VALID,86.7793,VALID,0,VALID,23.0946,VALID,45,VALID,0.878906,
2009-08-18, 01:34:04,VALID,1001.06,VALID,0,VALID,86.97,VALID,0,VALID,23.0964,VALID,26,VALID,0.595703,
2009-08-18, 01:35:04,VALID,1001.02,VALID,0,VALID,87.0769,VALID,0,VALID,23.0573,VALID,34,VALID,0.652734,
2009-08-18, 01:36:04,VALID,1001.02,VALID,0,VALID,87.1913,VALID,0,VALID,23.0183,VALID,34,VALID,1.13906,
2009-08-18, 01:37:04,VALID,1001,VALID,0,VALID,87.3668,VALID,0,VALID,22.9793,VALID,42,VALID,1.00977,
2009-08-18, 01:38:04,VALID,1000.98,VALID,0,VALID,87.3286,VALID,0,VALID,22.9793,VALID,45,VALID,1.34414,
2009-08-18, 01:39:04,VALID,1000.99,VALID,0,VALID,87.4736,VALID,0,VALID,22.9403,VALID,45,VALID,1.29844,
2009-08-18, 01:40:04,VALID,1001,VALID,0,VALID,87.4965,VALID,0,VALID,22.9403,VALID,53,VALID,1.55977,
2009-08-18, 01:41:04,VALID,1000.99,VALID,0,VALID,87.6414,VALID,0,VALID,22.9208,VALID,37,VALID,1.45078,
2009-08-18, 01:42:04,VALID,1000.96,VALID,0,VALID,87.878,VALID,0,VALID,22.9013,VALID,34,VALID,1.33828,
2009-08-18, 01:43:04,VALID,1000.97,VALID,0,VALID,88.1755,VALID,0,VALID,22.841,VALID,38,VALID,1.36992,
2009-08-18, 01:44:04,VALID,1000.97,VALID,0,VALID,88.4349,VALID,0,VALID,22.8427,VALID,28,VALID,1.16406,
2009-08-18, 01:45:04,VALID,1000.99,VALID,0,VALID,88.6409,VALID,0,VALID,22.8037,VALID,29,VALID,0.980078,
2009-08-18, 01:46:04,VALID,1000.95,VALID,0,VALID,88.8546,VALID,0,VALID,22.7647,VALID,37,VALID,0.751172,
2009-08-18, 01:47:04,VALID,1000.94,VALID,0,VALID,89.0987,VALID,0,VALID,22.7452,VALID,29,VALID,0.764063,
2009-08-18, 01:48:04,VALID,1000.92,VALID,0,VALID,89.2742,VALID,0,VALID,22.7452,VALID,19,VALID,0.710938,
2009-08-18, 01:49:04,VALID,1000.88,VALID,0,VALID,89.442,VALID,0,VALID,22.7045,VALID,12,VALID,0.766016,
2009-08-18, 01:50:04,VALID,1000.91,VALID,0,VALID,89.526,VALID,0,VALID,22.7062,VALID,11,VALID,0.328125,
2009-08-18, 01:51:04,VALID,1000.92,VALID,0,VALID,89.6862,VALID,0,VALID,22.7062,VALID,14,VALID,0.374609,
2009-08-18, 01:52:04,VALID,1000.87,VALID,0,VALID,89.8159,VALID,0,VALID,22.685,VALID,19,VALID,0.211719,
2009-08-18, 01:53:04,VALID,1000.87,VALID,0,VALID,89.8464,VALID,0,VALID,22.6867,VALID,32,VALID,0.430078,
2009-08-18, 01:54:04,VALID,1000.86,VALID,0,VALID,89.9456,VALID,0,VALID,22.7257,VALID,113,VALID,1.25586,
2009-08-18, 01:55:04,VALID,1000.83,VALID,0,VALID,89.6862,VALID,0,VALID,22.7647,VALID,102,VALID,1.2418,
2009-08-18, 01:56:04,VALID,1000.82,VALID,0,VALID,89.0911,VALID,0,VALID,22.8605,VALID,116,VALID,1.48203,
2009-08-18, 01:57:04,VALID,1000.84,VALID,0,VALID,88.6104,VALID,0,VALID,22.9811,VALID,117,VALID,1.26406,
2009-08-18, 01:58:04,VALID,1000.84,VALID,0,VALID,87.9161,VALID,0,VALID,23.0591,VALID,115,VALID,1.00742,
2009-08-18, 01:59:04,VALID,1000.82,VALID,0,VALID,87.3973,VALID,0,VALID,23.0964,VALID,119,VALID,1.17461,
2009-08-18, 02:00:04,VALID,1000.83,VALID,0,VALID,86.7869,VALID,0,VALID,23.1957,VALID,121,VALID,1.22773,
2009-08-18, 02:01:04,VALID,1000.8,VALID,0,VALID,86.2529,VALID,0,VALID,23.2542,VALID,107,VALID,1.16328,
2009-08-18, 02:02:04,VALID,1000.82,VALID,0,VALID,84.9634,VALID,0,VALID,23.2915,VALID,129,VALID,1.45352,
2009-08-18, 02:03:04,VALID,1000.81,VALID,0,VALID,84.6583,VALID,0,VALID,23.4103,VALID,122,VALID,1.07695,
2009-08-18, 02:04:04,VALID,1000.83,VALID,0,VALID,83.7961,VALID,0,VALID,23.4884,VALID,127,VALID,1.09023,
2009-08-18, 02:05:04,VALID,1000.78,VALID,0,VALID,82.9263,VALID,0,VALID,23.5859,VALID,128,VALID,1.26445,
2009-08-18, 02:06:04,VALID,1000.81,VALID,0,VALID,83.056,VALID,0,VALID,23.6427,VALID,109,VALID,0.986719,
2009-08-18, 02:07:04,VALID,1000.78,VALID,0,VALID,82.6135,VALID,0,VALID,23.703,VALID,126,VALID,0.955469,
2009-08-18, 02:08:04,VALID,1000.77,VALID,0,VALID,82.6212,VALID,0,VALID,23.7616,VALID,120,VALID,0.792969,
2009-08-18, 02:09:04,VALID,1000.77,VALID,0,VALID,82.3846,VALID,0,VALID,23.7811,VALID,111,VALID,1.17891,
2009-08-18, 02:10:04,VALID,1000.76,VALID,0,VALID,82.0184,VALID,0,VALID,23.8006,VALID,107,VALID,1.15,
2009-08-18, 02:11:04,VALID,1000.74,VALID,0,VALID,82.3007,VALID,0,VALID,23.8396,VALID,120,VALID,0.980469,
2009-08-18, 02:12:04,VALID,1000.72,VALID,0,VALID,82.3312,VALID,0.112286,VALID,23.8378,VALID,120,VALID,0.826172,
2009-08-18, 02:13:04,VALID,1000.73,VALID,0,VALID,82.4152,VALID,0,VALID,23.8165,VALID,120,VALID,0.617188,
2009-08-18, 02:14:04,VALID,1000.7,VALID,0,VALID,82.2855,VALID,0,VALID,23.8165,VALID,79,VALID,0.704297,
2009-08-18, 02:15:04,VALID,1000.67,VALID,0,VALID,82.7738,VALID,0,VALID,23.8183,VALID,74,VALID,0.699219,
2009-08-18, 02:16:04,VALID,1000.69,VALID,0,VALID,82.2778,VALID,0,VALID,23.8183,VALID,98,VALID,1.12852,
2009-08-18, 02:17:04,VALID,1000.68,VALID,0,VALID,82.1176,VALID,0,VALID,23.797,VALID,91,VALID,1.20625,
2009-08-18, 02:18:04,VALID,1000.65,VALID,0,VALID,82.3236,VALID,0,VALID,23.797,VALID,83,VALID,1.33555,
2009-08-18, 02:19:04,VALID,1000.64,VALID,0,VALID,82.6212,VALID,0,VALID,23.8165,VALID,92,VALID,1.04844,
2009-08-18, 02:20:04,VALID,1000.63,VALID,0,VALID,82.4152,VALID,0.112286,VALID,23.8183,VALID,107,VALID,1.15273,
2009-08-18, 02:21:04,VALID,1000.59,VALID,0,VALID,82.1634,VALID,0,VALID,23.7988,VALID,99,VALID,0.951953,
2009-08-18, 02:22:04,VALID,1000.56,VALID,0,VALID,81.8735,VALID,0,VALID,23.7775,VALID,98,VALID,1.13437,
2009-08-18, 02:23:04,VALID,1000.54,VALID,0,VALID,81.7438,VALID,0,VALID,23.7988,VALID,86,VALID,0.919141,
2009-08-18, 02:24:04,VALID,1000.5,VALID,0,VALID,81.286,VALID,0,VALID,23.8378,VALID,87,VALID,0.827734,
2009-08-18, 02:25:04,VALID,1000.43,VALID,0,VALID,81.2936,VALID,0,VALID,23.8165,VALID,85,VALID,0.724219,
2009-08-18, 02:26:04,VALID,1000.42,VALID,0,VALID,81.3317,VALID,0,VALID,23.8573,VALID,96,VALID,0.560156,
2009-08-18, 02:27:04,VALID,1000.42,VALID,0,VALID,81.4462,VALID,0,VALID,23.8378,VALID,83,VALID,0.368359,
2009-08-18, 02:28:04,VALID,1000.37,VALID,0,VALID,81.3089,VALID,0,VALID,23.8378,VALID,82,VALID,0.173828,
2009-08-18, 02:29:04,VALID,1000.36,VALID,0,VALID,81.4996,VALID,0,VALID,23.8378,VALID,82,VALID,0.313281,
2009-08-18, 02:30:04,VALID,1000.32,VALID,0,VALID,82.5754,VALID,0,VALID,23.8165,VALID,82,VALID,0.229297,
2009-08-18, 02:31:04,VALID,1000.3,VALID,0,VALID,83.1323,VALID,0,VALID,23.7988,VALID,23,VALID,0.611328,
2009-08-18, 02:32:04,VALID,1000.28,VALID,0,VALID,83.4604,VALID,0.112286,VALID,23.7012,VALID,22,VALID,0.364453,
2009-08-18, 02:33:04,VALID,1000.29,VALID,0,VALID,83.9106,VALID,0.112286,VALID,23.5823,VALID,22,VALID,0.292578,
2009-08-18, 02:34:04,VALID,1000.28,VALID,0,VALID,84.3836,VALID,0.112286,VALID,23.5451,VALID,22,VALID,0.450781,
2009-08-18, 02:35:04,VALID,1000.28,VALID,0,VALID,84.5667,VALID,0.112286,VALID,23.4458,VALID,7,VALID,0.191797,
2009-08-18, 02:36:04,VALID,1000.31,VALID,0,VALID,84.8795,VALID,0,VALID,23.428,VALID,7,VALID,0,
2009-08-18, 02:37:04,VALID,1000.29,VALID,0,VALID,85.1237,VALID,0,VALID,23.3482,VALID,9,VALID,0.307422,
2009-08-18, 02:38:04,VALID,1000.28,VALID,0,VALID,85.2457,VALID,0.112286,VALID,23.311,VALID,101,VALID,0.809375,
2009-08-18, 02:39:04,VALID,1000.28,VALID,0,VALID,85.0397,VALID,0,VALID,23.2524,VALID,112,VALID,1.06875,
2009-08-18, 02:40:04,VALID,1000.29,VALID,0,VALID,84.8337,VALID,0,VALID,23.2719,VALID,106,VALID,0.639844,
2009-08-18, 02:41:04,VALID,1000.31,VALID,0,VALID,84.2768,VALID,0.112286,VALID,23.2702,VALID,117,VALID,0.991016,
2009-08-18, 02:42:04,VALID,1000.25,VALID,0,VALID,83.964,VALID,0,VALID,23.3323,VALID,118,VALID,0.983594,
2009-08-18, 02:43:04,VALID,1000.24,VALID,0,VALID,82.7661,VALID,0,VALID,23.35,VALID,123,VALID,0.964453,
2009-08-18, 02:44:04,VALID,1000.23,VALID,0,VALID,81.8277,VALID,0,VALID,23.4298,VALID,113,VALID,1.06133,
2009-08-18, 02:45:04,VALID,1000.24,VALID,0,VALID,80.9274,VALID,0,VALID,23.4866,VALID,121,VALID,1.26094,
2009-08-18, 02:46:04,VALID,1000.23,VALID,0,VALID,80.0652,VALID,0,VALID,23.6054,VALID,124,VALID,1.46367,
2009-08-18, 02:47:04,VALID,1000.24,VALID,0,VALID,79.3557,VALID,0,VALID,23.703,VALID,122,VALID,1.27734,
2009-08-18, 02:48:04,VALID,1000.23,VALID,0,VALID,79.2794,VALID,0,VALID,23.7811,VALID,121,VALID,1.25078,
2009-08-18, 02:49:04,VALID,1000.2,VALID,0,VALID,78.7911,VALID,0,VALID,23.8183,VALID,123,VALID,1.5207,
2009-08-18, 02:50:04,VALID,1000.22,VALID,0,VALID,78.4554,VALID,0,VALID,23.8786,VALID,126,VALID,1.24102,
2009-08-18, 02:51:04,VALID,1000.21,VALID,0,VALID,78.1349,VALID,0,VALID,23.8963,VALID,125,VALID,1.075,
2009-08-18, 02:52:04,VALID,1000.2,VALID,0,VALID,77.6009,VALID,0,VALID,23.9159,VALID,126,VALID,0.940234,
2009-08-18, 02:53:04,VALID,1000.2,VALID,0,VALID,77.7458,VALID,0,VALID,23.9567,VALID,128,VALID,0.947656,
2009-08-18, 02:54:04,VALID,1000.2,VALID,0,VALID,77.9137,VALID,0,VALID,23.9762,VALID,117,VALID,0.846094,
2009-08-18, 02:55:04,VALID,1000.18,VALID,0,VALID,78.4172,VALID,0,VALID,23.9762,VALID,99,VALID,0.773438,
2009-08-18, 02:56:04,VALID,1000.18,VALID,0,VALID,78.1044,VALID,0,VALID,23.9372,VALID,123,VALID,0.914844,
2009-08-18, 02:57:04,VALID,1000.16,VALID,0,VALID,78.5622,VALID,0,VALID,23.914,VALID,124,VALID,0.622656,
2009-08-18, 02:58:04,VALID,1000.19,VALID,0,VALID,78.3791,VALID,0,VALID,23.875,VALID,134,VALID,0.937891,
2009-08-18, 02:59:04,VALID,1000.17,VALID,0,VALID,77.8145,VALID,0,VALID,23.8555,VALID,147,VALID,1.43438,
2009-08-18, 03:00:04,VALID,1000.17,VALID,0,VALID,77.6314,VALID,0,VALID,23.9159,VALID,141,VALID,1.11797,
2009-08-18, 03:01:04,VALID,1000.15,VALID,0,VALID,78.1197,VALID,0,VALID,23.9336,VALID,135,VALID,0.676172,
2009-08-18, 03:02:04,VALID,1000.19,VALID,0,VALID,77.9518,VALID,0,VALID,23.914,VALID,133,VALID,0.76875,
2009-08-18, 03:03:04,VALID,1000.18,VALID,0,VALID,78.4935,VALID,0,VALID,23.8945,VALID,124,VALID,0.851172,
2009-08-18, 03:04:04,VALID,1000.19,VALID,0,VALID,78.7453,VALID,0,VALID,23.8555,VALID,124,VALID,0.792578,
2009-08-18, 03:05:04,VALID,1000.18,VALID,0,VALID,78.8979,VALID,0,VALID,23.8165,VALID,125,VALID,0.848437,
2009-08-18, 03:06:04,VALID,1000.19,VALID,0,VALID,78.8445,VALID,0,VALID,23.7988,VALID,125,VALID,0.772266,
2009-08-18, 03:07:04,VALID,1000.19,VALID,0,VALID,79.0352,VALID,0,VALID,23.7793,VALID,139,VALID,0.575391,
2009-08-18, 03:08:04,VALID,1000.21,VALID,0,VALID,79.1878,VALID,0,VALID,23.7384,VALID,131,VALID,0.845703,
2009-08-18, 03:09:04,VALID,1000.19,VALID,0,VALID,79.6075,VALID,0,VALID,23.7597,VALID,125,VALID,0.787109,
2009-08-18, 03:10:04,VALID,1000.2,VALID,0,VALID,79.3938,VALID,0,VALID,23.7207,VALID,134,VALID,0.795313,
2009-08-18, 03:11:04,VALID,1000.21,VALID,0,VALID,79.2183,VALID,0,VALID,23.7207,VALID,139,VALID,1.12539,
2009-08-18, 03:12:04,VALID,1000.2,VALID,0,VALID,79.0047,VALID,0,VALID,23.7012,VALID,139,VALID,1.38281,
2009-08-18, 03:13:04,VALID,1000.22,VALID,0,VALID,78.8292,VALID,0,VALID,23.7207,VALID,130,VALID,1.10781,
2009-08-18, 03:14:04,VALID,1000.19,VALID,0,VALID,78.5927,VALID,0,VALID,23.7597,VALID,117,VALID,1.06719,
2009-08-18, 03:15:04,VALID,1000.22,VALID,0,VALID,78.3104,VALID,0,VALID,23.7793,VALID,109,VALID,1.22539,
2009-08-18, 03:16:04,VALID,1000.24,VALID,0,VALID,78.0281,VALID,0,VALID,23.7988,VALID,111,VALID,1.58516,
2009-08-18, 03:17:04,VALID,1000.22,VALID,0,VALID,77.8603,VALID,0,VALID,23.8982,VALID,126,VALID,1.37852,
2009-08-18, 03:18:04,VALID,1000.22,VALID,0,VALID,76.8989,VALID,0,VALID,23.9372,VALID,129,VALID,1.81602,
2009-08-18, 03:19:04,VALID,1000.2,VALID,0,VALID,77.433,VALID,0,VALID,24.0134,VALID,119,VALID,1.37578,
2009-08-18, 03:20:04,VALID,1000.21,VALID,0,VALID,77.1049,VALID,0,VALID,24.0348,VALID,136,VALID,0.930859,
2009-08-18, 03:21:04,VALID,1000.18,VALID,0,VALID,77.3186,VALID,0,VALID,23.9939,VALID,127,VALID,1.13906,
2009-08-18, 03:22:04,VALID,1000.2,VALID,0,VALID,77.3567,VALID,0,VALID,24.0153,VALID,149,VALID,0.819922,
2009-08-18, 03:23:04,VALID,1000.2,VALID,0,VALID,77.3872,VALID,0,VALID,23.9939,VALID,152,VALID,1.33672,
2009-08-18, 03:24:04,VALID,1000.2,VALID,0,VALID,76.7235,VALID,0,VALID,24.0134,VALID,162,VALID,1.23242,
2009-08-18, 03:25:04,VALID,1000.21,VALID,0,VALID,76.548,VALID,0,VALID,24.0738,VALID,151,VALID,1.09805,
2009-08-18, 03:26:04,VALID,1000.19,VALID,0,VALID,76.7006,VALID,0,VALID,24.1128,VALID,140,VALID,0.821484,
2009-08-18, 03:27:04,VALID,1000.2,VALID,0,VALID,76.1436,VALID,0,VALID,24.111,VALID,139,VALID,0.693359,
2009-08-18, 03:28:04,VALID,1000.24,VALID,0,VALID,76.0673,VALID,0.112286,VALID,24.1287,VALID,151,VALID,0.820703,
2009-08-18, 03:29:04,VALID,1000.2,VALID,0,VALID,76.1207,VALID,0,VALID,24.1677,VALID,165,VALID,1.51172,
2009-08-18, 03:30:04,VALID,1000.25,VALID,0,VALID,75.6401,VALID,0,VALID,24.2067,VALID,161,VALID,1.28633,
2009-08-18, 03:31:04,VALID,1000.2,VALID,0,VALID,75.3806,VALID,0,VALID,24.2458,VALID,160,VALID,0.917188,
2009-08-18, 03:32:04,VALID,1000.23,VALID,0,VALID,75.1746,VALID,0,VALID,24.2866,VALID,145,VALID,0.785156,
2009-08-18, 03:33:04,VALID,1000.24,VALID,0,VALID,75.5714,VALID,0,VALID,24.2866,VALID,132,VALID,0.673828,
2009-08-18, 03:34:04,VALID,1000.23,VALID,0,VALID,75.8079,VALID,0,VALID,24.2458,VALID,134,VALID,0.692187,
2009-08-18, 03:35:04,VALID,1000.25,VALID,0,VALID,75.8689,VALID,0,VALID,24.2476,VALID,135,VALID,0.751562,
2009-08-18, 03:36:04,VALID,1000.26,VALID,0,VALID,76.0292,VALID,0,VALID,24.1872,VALID,130,VALID,0.523047,
2009-08-18, 03:37:04,VALID,1000.21,VALID,0,VALID,76.403,VALID,0,VALID,24.1677,VALID,140,VALID,1.01367,
2009-08-18, 03:38:04,VALID,1000.22,VALID,0,VALID,76.4564,VALID,0,VALID,24.15,VALID,122,VALID,0.840234,
2009-08-18, 03:39:04,VALID,1000.22,VALID,0,VALID,76.6624,VALID,0,VALID,24.0897,VALID,112,VALID,0.842969,
2009-08-18, 03:40:04,VALID,1000.2,VALID,0,VALID,76.8455,VALID,0.112286,VALID,24.0701,VALID,114,VALID,0.875391,
2009-08-18, 03:41:04,VALID,1000.2,VALID,0,VALID,77.1507,VALID,0,VALID,24.0329,VALID,111,VALID,0.710547,
2009-08-18, 03:42:04,VALID,1000.24,VALID,0,VALID,77.0821,VALID,0,VALID,23.9726,VALID,111,VALID,0.833984,
2009-08-18, 03:43:04,VALID,1000.25,VALID,0,VALID,77.3262,VALID,0,VALID,23.9744,VALID,132,VALID,1.11641,
2009-08-18, 03:44:04,VALID,1000.27,VALID,0,VALID,77.494,VALID,0,VALID,23.9549,VALID,138,VALID,0.861328,
2009-08-18, 03:45:04,VALID,1000.29,VALID,0,VALID,77.3796,VALID,0,VALID,23.9336,VALID,136,VALID,0.857031,